Station EROA2 - Eldred Rock, AK Image indicating link to RSS feed of recent meteorological observations for station EROA2


Conditions at EROA2 as of
(10:24 am AKDT)
1824 GMT on 07/14/2024:
     

Click on the graph icon in the table below to see a time series plot of the last five days of that observation.

5-day plot - Wind Direction Wind Direction (WDIR):SSW ( 200 deg true )
5-day plot - Wind Speed Wind Speed (WSPD): 27.0 kts
5-day plot - Wind Gust Wind Gust (GST): 35.0 kts
5-day plot - Atmospheric Pressure Atmospheric Pressure (PRES):29.93 in
5-day plot - Air Temperature Air Temperature (ATMP): 56.8 °F
5-day plot - Dew Point Dew Point (DEWP): 56.8 °F
5-day plot - Wind Speed at 10 Meters Wind Speed at 10 meters (WSPD10M): 29.1 kts
5-day plot - Wind Speed at 20 Meters Wind Speed at 20 meters (WSPD20M): 31.1 kts
5-day plot -  Wind Speed, Wind Gust and Atmospheric Pressure Combined plot of Wind Speed, Gust, and Air Pressure
Previous observations
TIME
(AKDT)
5-day plot - Wind Direction
WDIR
 
5-day plot - Wind Speed
WSPD
kts
5-day plot - Wind Gust
GST
kts
5-day plot - Wave Height
WVHT
ft
5-day plot - Dominant Wave Period
DPD
sec
5-day plot - Average Wave Period
APD
sec
5-day plot - Mean Wave Direction
MWD
 
5-day plot - Atmospheric Pressure
PRES
in
5-day plot - Pressure Tendency
PTDY
in
5-day plot - Air Temperature
ATMP
°F
5-day plot - Water Temperature
WTMP
°F
5-day plot - Dew Point
DEWP
°F
5-day plot - Salinity
SAL
psu
5-day plot - Visibility
VIS
nmi
5-day plot - Tide (above MLLW)
TIDE
ft
2024-07-14 09:24 amSSW 28.0 35.0----29.92- 56.8- 56.8---
2024-07-14 08:24 am S 25.1 35.0----29.92- 56.8- 56.8---
2024-07-14 07:24 amSSW 28.0 33.0----29.93- 56.5- 56.5---
2024-07-14 06:24 amSSW 25.1 29.9----29.93- 56.5- 56.5---
2024-07-14 05:24 amSSW 26.0 29.9----29.94- 56.3- 56.3---
2024-07-14 04:24 amSSW 25.1 28.9----29.95- 56.3- 56.3---
2024-07-14 03:24 amSSW 22.9 28.0----29.95- 56.1- 56.1---
2024-07-14 02:24 amSSW 22.9 28.0----29.96- 56.1- 56.1---
2024-07-14 01:24 amSSW 22.9 28.9----29.97- 55.9- 55.9---
2024-07-14 12:24 amSSW 22.0 24.1----29.98- 55.6- 55.6---
2024-07-13 11:24 pmSSW 21.0 25.1----29.99- 55.8- 55.8---
2024-07-13 10:24 pmSSW 22.0 26.0----30.01- 55.6- 55.6---
2024-07-13 09:24 pmSSW 22.9 26.0----30.00- 55.8-----
2024-07-13 08:24 pmSSW 22.0 27.0----30.02- 55.6- 55.6---
2024-07-13 07:24 pmSSW 24.1 27.0----30.03- 55.4- 55.4---
2024-07-13 06:24 pmSSW 24.1 28.9----30.04- 55.4- 55.4---
2024-07-13 05:24 pmSSW 22.9 28.9----30.06- 55.2- 55.0---
2024-07-13 04:24 pmSSW 25.1 29.9----30.07- 54.9-----
2024-07-13 03:24 pmSSW 24.1 28.0----30.08- 54.7- 54.7---
2024-07-13 02:24 pmSSW 22.0 27.0----30.09- 54.9- 54.9---
2024-07-13 01:24 pmSSW 21.0 25.1----30.10- 54.9- 54.9---
2024-07-13 12:24 pmSSW 21.0 25.1----30.10- 54.9- 54.7---
2024-07-13 11:24 amSSW 18.1 22.0----30.11- 54.9- 54.9---